Dati Storici

Data ora Umidita' aria (%) Temperatura aria (°C) Rad globale (W/m²) Gonioanemometro (°) Tacoanemometro (m/s) Pioggia (mm)
01-11-2012 02:10 95 % 8.513 2.762 17.571 7.597 1
01-11-2012 02:00 94.9 % 8.568 2.483 11.754 8.156 1
01-11-2012 01:50 94.8 % 8.577 2.766 51.477 5.709 0
01-11-2012 01:40 94.8 % 8.663 2.907 5.059 4.862 0
01-11-2012 01:30 95.2 % 8.725 2.945 48.829 4.867 0
01-11-2012 01:20 95.2 % 8.641 3.022 17.026 7.084 0
01-11-2012 01:10 95.1 % 8.697 2.691 52.163 6.518 1
01-11-2012 01:00 94.9 % 8.758 2.691 39.977 6.203 1
01-11-2012 00:50 94.8 % 8.783 2.781 346.496 4.84 1
01-11-2012 00:40 94.9 % 8.85 2.831 42.57 6.541 0
01-11-2012 00:30 94.8 % 8.824 2.677 351.539 5.74 1
01-11-2012 00:20 94.8 % 8.759 2.857 20.24 6.159 0
01-11-2012 00:10 94.7 % 8.795 2.74 48.237 7.884 0
01-11-2012 00:00 94.8 % 8.821 2.933 27.252 4.671 0
31-10-2012 23:50 94.8 % 8.789 3.035 37.271 8.919 0
31-10-2012 23:40 94.6 % 8.771 3.063 51.071 5.75 1
31-10-2012 23:30 94.5 % 8.819 2.843 44.344 4.397 1
31-10-2012 23:20 94.4 % 8.917 2.727 24.605 9.008 1
31-10-2012 23:10 94.2 % 8.939 2.777 28.103 5.481 1
31-10-2012 23:00 94.1 % 9.053 2.7 91.405 5.855 1

I dati sono presentati in modo automatico a scopo informativo. In seguito a verifica i dati possono subire modifiche o essere invalidati e non riportati negli archivi definitivi.